Location: Arrien
(42.8963°N, 1.0429°E)
Time: 15:28:56
(UTC+00:00)

Cosmos 1538 Rocket - Pass Details

Date: 11 December 2025
Orbit: 747 x 788 km, 74.0° (Epoch: 19 January)

Event Time Altitude Azimuth Distance (km) Brightness Sun altitude
Rises 17:53:47 0° 343° (NNW) 3,252 7.3 -16.2°
Reaches altitude 10° 17:56:12 10° 347° (NNW) 2,327 6.5 -16.7°
Maximum altitude 18:01:26 59° 67° (ENE) 899 4.0 -17.6°
Drops below altitude 10° 18:06:40 10° 147° (SSE) 2,335 6.3 -18.5°
Sets 18:09:05 0° 151° (SSE) 3,263 7.1 -18.9°
